Flag for Germany Weather past 2 weeks in Pfaffenhofen an der Ilm, Bavaria, Germany

Now
34 °F

Chilly.


Feels Like: 23 °F
Forecast: 33 / 44 °F
Wind: 17 mph from Northwest

Location: Ingolstadt Airport

Current Time: Mar 3, 2015 at 12:46:47 AM

Latest Report: Mar 2, 2015 at 11:20 PM


Visibility: 1 mi

Pressure: 30.07 "Hg

Humidity: 87%

Dew point: 30 °F

Location of Pfaffenhofen an der IlmLocation

Historic Weather in Pfaffenhofen an der Ilm — Graph

°F

Pfaffenhofen an der Ilm temperature yesterday

Maximum temperature yesterday: 48 °F (at 5:20 AM)
Minimum temperature yesterday: 34 °F (at 11:20 PM)
Average temperature yesterday: 42 °F

Past Weeks' High & Low Weather Summary

 TemperatureHumidityPressure
High52 °F (Feb 20, 4:20 PM)100% (Feb 16, 1:20 AM)30.72 "Hg (Feb 16, 1:20 AM)
Low21 °F (Feb 20, 7:20 AM)41% (Feb 20, 4:20 PM)29.50 "Hg (Feb 21, 1:20 PM)
Average33 °F89%30.02 "Hg
* Reported Feb 15 11:20 PM — Mar 2 11:20 PM, Pfaffenhofen an der Ilm, Weather by CustomWeather, © 2015

Note: Actual official high and low records may vary slightly from our data, if they occured in-between our weather recording intervals... More about our weather records

Advertising

Pfaffenhofen an der Ilm weather history for previous 24 hours

 ConditionsComfort  
Time TempWeatherWind HumidityBarometerVisibility
11:20 PM
Mon, Mar 2
34 °FChilly.17 mph87%30.07 "Hg1 mi
10:20 PM37 °FChilly.14 mph81%29.98 "Hg5 mi
9:20 PM37 °FChilly.15 mph81%29.95 "Hg5 mi
8:20 PM36 °FChilly.12 mph93%29.89 "Hg3 mi
7:20 PM39 °FChilly.15 mph81%29.89 "Hg5 mi
6:20 PM41 °FPassing clouds.18 mph76%29.86 "HgN/A
5:20 PM41 °FPartly sunny.7 mph81%29.83 "HgN/A
4:20 PM41 °FPartly sunny.6 mph87%29.80 "HgN/A
3:20 PM39 °FLight rain. Broken clouds.10 mph87%29.80 "HgN/A
2:45 PM37 °FSprinkles. Partly sunny.18 mph93%29.80 "Hg4 mi
2:20 PM37 °FSnow showers. Partly sunny.15 mph87%29.80 "Hg1 mi
1:20 PM45 °FSprinkles. Partly sunny.14 mph61%29.74 "HgN/A
12:20 PM45 °FBroken clouds.15 mph61%29.74 "HgN/A
11:20 AM45 °FBroken clouds.16 mph71%29.74 "HgN/A
10:20 AM43 °FBroken clouds.17 mph81%29.71 "HgN/A
9:20 AM43 °FLight rain. Partly sunny.10 mph81%29.68 "HgN/A
8:20 AM45 °FPartly sunny.14 mph76%29.65 "HgN/A
7:20 AM46 °FBroken clouds.15 mph82%29.62 "HgN/A
6:20 AM46 °FLight rain. Partly cloudy.17 mph87%29.62 "HgN/A
5:20 AM48 °FCool.17 mph82%29.59 "Hg4 mi
4:20 AM46 °FCool.9 mph87%29.59 "Hg3 mi
3:20 AM46 °FCool.6 mph87%29.62 "Hg3 mi
2:20 AM46 °FCool.7 mph82%29.68 "Hg4 mi
1:20 AM39 °FChilly.5 mph100%29.68 "Hg4 mi
12:20 AM37 °FChilly.3 mph93%29.71 "Hg0 mi
Weather by CustomWeather, © 2015

See weather overviewHow to use our weather pages